EW0347 Weather Reports


time (UTC)temp
C
wind
direction
speed
KPH
gust
KPH
rain 1hr
cm
rain 24hr
cm
rain mn
cm
humidity
%
barometer
mb
20260507121545 7 269 4.8 17.7 0.00 0.51 0.03 85 1008.4
20260507120030 7 348 6.4 25.7 0.00 0.51 0.03 86 1008.5
20260507114557 6 275 6.4 20.9 0.00 0.51 0.03 87 1008.5
20260507113057 6 277 3.2 12.9 0.00 0.51 0.03 91 1008.3
20260507111559 6 235 1.6 11.3 0.00 0.51 0.03 91 1008.3
20260507110021 6 295 3.2 14.5 0.00 0.51 0.03 91 1008.3
20260507104602 6 259 1.6 12.9 0.00 0.51 0.03 91 1008.1
20260507103023 6 317 4.8 9.7 0.00 0.51 0.03 91 1007.8
20260507101556 6 315 3.2 12.9 0.00 0.51 0.03 91 1007.7
20260507100037 6 275 8.0 16.1 0.00 0.51 0.03 91 1007.6
20260507094606 6 282 3.2 6.4 0.00 0.51 0.03 91 1007.7
20260507093022 6 342 3.2 9.7 0.00 0.51 0.03 91 1007.9
20260507091551 6 292 3.2 9.7 0.00 0.51 0.03 91 1007.8
20260507090024 6 336 4.8 14.5 0.00 0.51 0.03 91 1007.7
20260507084502 6 294 3.2 9.7 0.00 0.51 0.03 91 1008.2
20260507083026 6 281 3.2 14.5 0.03 0.51 0.03 91 1008.0
20260507081557 6 293 3.2 12.9 0.03 0.51 0.03 91 1008.1
20260507080030 6 263 4.8 11.3 0.03 0.51 0.03 91 1007.8
20260507074503 6 333 0.0 8.0 0.03 0.51 0.03 90 1007.3
20260507073040 6 284 3.2 19.3 0.00 0.48 0.00 90 1007.6
20260507071521 6 283 3.2 11.3 0.00 0.48 0.00 89 1007.7
20260507070005 6 296 6.4 16.1 0.00 0.48 0.00 89 1007.1
20260507064549 6 329 6.4 16.1 0.00 0.48 0.00 89 1007.2
20260507063032 6 287 6.4 19.3 0.00 0.48 0.00 89 1007.0
20260507061517 7 290 6.4 16.1 0.00 0.48 0.00 89 1007.0
20260507060003 7 270 4.8 12.9 0.00 0.48 0.00 91 1007.0
20260507054543 7 280 8.0 14.5 0.00 0.48 0.00 91 1007.3
20260507053029 7 279 1.6 14.5 0.00 0.48 0.00 90 1007.8
20260507051605 7 277 4.8 20.9 0.00 0.48 0.00 90 1007.6
20260507044531 7 250 4.8 11.3 0.00 0.48 0.00 90 1007.4
20260507043004 8 275 4.8 12.9 0.00 0.48 0.00 90 1007.2
20260507041536 8 281 3.2 22.5 0.00 0.48 0.00 89 1007.1
20260507040016 8 254 9.7 20.9 0.00 0.48 0.00 90 1007.3
20260507034502 9 304 4.8 20.9 0.00 0.48 0.48 91 1007.0
20260507033048 9 279 4.8 27.4 0.03 0.48 0.48 91 1007.1
20260507031533 10 317 6.4 20.9 0.05 0.48 0.48 91 1006.7
20260507030007 10 287 8.0 17.7 0.05 0.48 0.48 89 1006.8
20260507024549 11 316 9.7 25.7 0.08 0.48 0.48 90 1006.4
20260507023038 11 322 9.7 24.1 0.05 0.46 0.46 91 1006.6
20260507021519 12 277 8.0 20.9 0.03 0.43 0.43 91 1006.9
20260507020045 12 298 6.4 22.5 0.03 0.43 0.43 92 1006.2
20260507014520 13 292 4.8 17.7 0.00 0.41 0.41 92 1005.9
20260507013053 13 223 4.8 22.5 0.00 0.41 0.41 93 1006.1
20260507011529 13 267 3.2 12.9 0.00 0.41 0.41 92 1005.6
20260507010055 13 189 4.8 12.9 0.00 0.41 0.41 92 1005.6
20260507004523 13 206 0.0 17.7 0.00 0.41 0.41 92 1005.5
20260507003055 13 195 3.2 12.9 0.00 0.41 0.41 92 1005.3
20260507001534 13 197 3.2 16.1 0.00 0.41 0.41 92 1005.0
20260507000004 13 153 4.8 12.9 0.00 0.41 0.41 92 1005.0
20260506234543 13 197 3.2 12.9 0.00 0.41 0.41 92 1005.0
20260506233006 13 234 4.8 16.1 0.00 0.41 0.41 92 1004.8
20260506231537 13 189 1.6 14.5 0.00 0.41 0.41 92 1004.7
20260506230010 13 202 3.2 12.9 0.00 0.41 0.41 92 1004.6
20260506224545 13 206 1.6 16.1 0.00 0.41 0.41 92 1004.7
20260506223016 13 225 4.8 16.1 0.00 0.41 0.41 92 1005.0
20260506221541 13 196 4.8 19.3 0.00 0.41 0.41 91 1004.9
20260506220009 13 207 3.2 16.1 0.03 0.41 0.41 91 1005.0
20260506214547 13 198 6.4 16.1 0.08 0.41 0.41 91 1004.9
20260506213022 13 214 4.8 25.7 0.10 0.41 0.41 91 1005.0
20260506211549 13 273 4.8 14.5 0.15 0.41 0.41 91 1004.9
20260506210023 13 265 3.2 14.5 0.20 0.38 0.38 91 1005.1
20260506204501 14 181 4.8 14.5 0.18 0.33 0.33 90 1005.2
20260506203035 14 163 6.4 17.7 0.20 0.30 0.30 90 1005.3
20260506201612 14 199 3.2 14.5 0.18 0.25 0.25 90 1005.6
20260506200057 15 209 1.6 25.7 0.10 0.18 0.18 90 1005.6
20260506194526 15 182 3.2 12.9 0.10 0.15 0.15 90 1005.8
20260506193016 15 185 1.6 9.7 0.05 0.10 0.10 89 1005.9
20260506191559 15 238 4.8 9.7 0.03 0.08 0.08 88 1005.9
20260506190044 15 153 3.2 11.3 0.05 0.08 0.08 88 1005.9
20260506184531 15 216 3.2 22.5 0.05 0.05 0.05 88 1005.7
20260506183015 15 173 3.2 12.9 0.05 0.05 0.05 87 1006.0
20260506181507 16 211 4.8 11.3 0.05 0.05 0.05 85 1006.3
20260506180053 16 233 1.6 8.0 0.03 0.03 0.03 85 1006.6
20260506174539 16 231 1.6 9.7 0.00 0.00 0.00 82 1006.9
20260506173025 17 212 1.6 8.0 0.00 0.00 0.00 79 1007.2
20260506170038 18 206 6.4 19.3 0.00 0.00 0.00 70 1007.0
20260506164506 18 190 4.8 16.1 0.00 0.00 0.00 70 1007.1
20260506163038 18 211 3.2 14.5 0.00 0.00 0.00 70 1007.1
20260506161509 18 209 4.8 17.7 0.00 0.00 0.00 70 1007.5
20260506160045 18 186 4.8 16.1 0.00 0.00 0.00 70 1007.6
20260506154516 18 211 8.0 25.7 0.00 0.00 0.00 70 1007.8
20260506153047 18 225 4.8 16.1 0.00 0.00 0.00 70 1008.0
20260506151530 18 222 4.8 16.1 0.00 0.00 0.00 70 1008.1
20260506150050 18 204 3.2 20.9 0.00 0.00 0.00 69 1008.2
20260506144512 18 238 4.8 20.9 0.00 0.00 0.00 68 1008.3
20260506143045 18 204 4.8 19.3 0.00 0.00 0.00 69 1008.1
20260506141508 19 180 8.0 24.1 0.00 0.00 0.00 68 1008.0
20260506140039 18 202 4.8 16.1 0.00 0.00 0.00 70 1007.8
20260506134518 18 221 8.0 29.0 0.00 0.00 0.00 72 1007.7
20260506133051 17 250 3.2 24.1 0.00 0.00 0.00 74 1008.0
20260506131525 17 184 6.4 20.9 0.00 0.00 0.00 75 1008.2
20260506130110 17 186 4.8 14.5 0.00 0.00 0.00 76 1008.3
20260506124522 16 202 4.8 16.1 0.00 0.00 0.00 78 1008.4
20260506123054 16 180 3.2 17.7 0.00 0.00 0.00 79 1008.6